Flag for Faroe Islands Weather past 2 weeks in Tórshavn, Faroe Islands, Faroe Islands

Now
46 °F

Partly sunny.


Feels Like: 44 °F
Forecast: 41 / 50 °F
Wind: 5 mph from Southeast

Location: Soervaag / Vagar

Current Time: May 30, 2015 at 4:36:16 PM

Latest Report: May 30, 2015 at 4:20 PM


Visibility: N/A

Pressure: 29.74 "Hg

Humidity: 71%

Dew point: 37 °F

Location of TórshavnLocation

Historic Weather in Tórshavn — Graph

°F

Tórshavn temperature yesterday

Maximum temperature yesterday: 48 °F (at 4:20 PM)
Minimum temperature yesterday: 41 °F (at 12:20 AM)
Average temperature yesterday: 45 °F

Past Weeks' High & Low Weather Summary

 TemperatureHumidityPressure
High50 °F (May 19, 10:51 AM)100% (May 21, 3:50 AM)30.21 "Hg (May 21, 3:50 AM)
Low37 °F (May 18, 12:50 AM)62% (May 19, 1:52 PM)29.42 "Hg (May 15, 7:53 PM)
Average44 °F82%29.67 "Hg
* Reported May 15 3:20 PM — May 30 3:20 PM, Tórshavn, Weather by CustomWeather, © 2015

Note: Actual official high and low records may vary slightly from our data, if they occured in-between our weather recording intervals... More about our weather records

Advertising

Tórshavn weather history for previous 24 hours

 ConditionsComfort  
Time TempWeatherWind HumidityBarometerVisibility
3:20 PM
Sat, May 30
46 °FLight rain. Partly sunny.7 mph71%29.74 "HgN/A
2:52 PM48 °FBroken clouds.5 mph66%29.74 "HgN/A
1:52 PM46 °FBroken clouds.12 mph66%29.74 "HgN/A
12:52 PM46 °FBroken clouds.9 mph71%29.74 "HgN/A
11:50 AM46 °FBroken clouds.12 mph71%29.74 "HgN/A
10:53 AM46 °FBroken clouds.10 mph71%29.74 "HgN/A
9:52 AM45 °FBroken clouds.7 mph71%29.74 "HgN/A
8:52 AM45 °FBroken clouds.16 mph71%29.71 "HgN/A
7:51 AM45 °FScattered clouds.10 mph71%29.71 "HgN/A
7:20 AM43 °FScattered clouds.18 mph76%29.71 "HgN/A
6:50 AM45 °FPartly sunny.17 mph66%29.71 "HgN/A
6:20 AM43 °FOvercast.18 mph76%29.68 "HgN/A
5:50 AM43 °FPartly sunny.23 mph76%29.68 "HgN/A
5:20 AM43 °FPartly sunny.25 mph71%29.65 "HgN/A
4:50 AM43 °FPassing clouds.23 mph71%29.65 "HgN/A
4:20 AM43 °FPassing clouds.20 mph66%29.65 "HgN/A
3:50 AM43 °FPassing clouds.17 mph71%29.65 "HgN/A
3:20 AM43 °FOvercast.13 mph71%29.65 "HgN/A
2:50 AM43 °FOvercast.17 mph76%29.65 "HgN/A
2:20 AM45 °FOvercast.22 mph71%29.65 "HgN/A
1:50 AM45 °FPassing clouds.18 mph81%29.65 "HgN/A
1:20 AM45 °FPartly cloudy.10 mph81%29.65 "HgN/A
12:50 AM45 °FPassing clouds.12 mph76%29.65 "HgN/A
12:20 AM45 °FPartly cloudy.13 mph76%29.62 "HgN/A
11:50 PM
Fri, May 29
46 °FPartly sunny.18 mph71%29.62 "HgN/A
11:20 PM46 °FPartly sunny.21 mph76%29.59 "HgN/A
10:50 PM46 °FScattered clouds.22 mph76%29.59 "HgN/A
10:20 PM46 °FPartly sunny.23 mph76%29.59 "HgN/A
9:20 PM46 °FPartly sunny.18 mph76%29.56 "HgN/A
8:50 PM46 °FBroken clouds.21 mph82%29.56 "HgN/A
8:20 PM46 °FSprinkles. Partly sunny.20 mph82%29.56 "HgN/A
7:54 PM46 °FLight rain. Partly sunny.15 mph82%29.53 "HgN/A
7:20 PM46 °FPartly sunny.16 mph82%29.53 "HgN/A
6:51 PM46 °FLight rain. Broken clouds.15 mph82%29.53 "HgN/A
6:20 PM46 °FPartly sunny.17 mph82%29.50 "HgN/A
5:50 PM48 °FBroken clouds.16 mph76%29.50 "HgN/A
5:20 PM48 °FPartly sunny.15 mph76%29.50 "HgN/A
4:50 PM48 °FPartly sunny.17 mph82%29.47 "HgN/A
4:20 PM48 °FPartly sunny.16 mph82%29.47 "HgN/A
Weather by CustomWeather, © 2015

See weather overviewHow to use our weather pages